Regional Weather Roundup
Issued by NWS

Home | Current Version | Previous Version | Text Only | Print | Product List | Glossary On
Versions: 1 2 3 4 5 6 7 8 9 10 11 12 13 14 15 16 17 18 19 20 21 22 23 24 25 26 27 28 29 30 31 32 33 34 35 36 37 38 39 40 41 42 43 44 45 46 47 48 49 50
000
ASUS43 KTOP 020208
RWRKS

WEATHER ROUNDUP FOR KANSAS
NATIONAL WEATHER SERVICE GOODLAND KS
900 PM CDT TUE SEP 01 2015

NOTE:  "FAIR" INDICATES FEW OR NO CLOUDS BELOW 12,000 FEET WITH NO
SIGNIFICANT WEATHER AND/OR OBSTRUCTIONS TO VISIBILITY.

KSZ001>006-013>018-027>032-041>047-020300-
NORTHWEST KANSAS

CITY           SKY/WX    TMP DP  RH WIND       PRES   REMARKS
GOODLAND       MOCLDY    78  58  49 S13       29.98R
HAYS           PTCLDY    86  57  37 S13       29.90R
HILL CITY      PTCLDY    84  57  39 SW5       29.90R
RUSSELL        PTCLDY    88  60  38 S17       29.88R
$$

KSZ061>065-074>080-084>089-020300-
SOUTHWEST KANSAS

CITY           SKY/WX    TMP DP  RH WIND       PRES   REMARKS
DODGE CITY     PTCLDY    83  54  36 S13       29.95R
ELKHART          N/A     77  52  41 SW20        N/A
GARDEN CITY    CLOUDY    78  59  51 SE8       29.94R
GREAT BEND     PTCLDY    84  61  45 S14       29.91R
LIBERAL        CLOUDY    84  54  34 S14       29.96S
PRATT          CLEAR     84  55  37 MISG      29.97R
$$

KSZ066>073-081>083-090>101-020300-
SOUTHEAST KANSAS

CITY           SKY/WX    TMP DP  RH WIND       PRES   REMARKS
CHANUTE        CLEAR     76  69  79 SE8       30.01R
COFFEYVILLE    CLEAR     77  70  79 SE7       30.01R
HUTCHINSON     CLEAR     82  65  56 SE14      29.95R
MEDICINE LODGE   N/A     86  60  41 SE7       29.94R
NEWTON         CLEAR     79  63  57 SE12      30.00R
PARSONS        CLEAR     77  69  76 SE5       30.02R
WICHITA INTL   PTCLDY    83  67  58 SE16      29.96R
WICHITA JABRA  CLEAR     81  67  62 SE12      29.97R
WICHITA MCCONL CLEAR     81  67  61 SE15      29.97R
WINFIELD       CLEAR     81  68  64 SE9       29.99R
$$

KSZ007>012-019>026-033>040-048>060-102>105-020300-
NORTHEAST KANSAS

CITY           SKY/WX    TMP DP  RH WIND       PRES   REMARKS
CONCORDIA      PTCLDY    82  64  54 S18G25    29.90R
EMPORIA        CLEAR     77  66  68 SE12      29.99R
LAWRENCE       CLEAR     75  67  76 SE6       30.00R
MANHATTAN      PTCLDY    82  66  58 S13       29.93R
MARYSVILLE     PTCLDY   N/A N/A N/A S15G21    29.93R
OLATHE IND     CLEAR     74  68  81 S7        30.02R
OLATHE EXE     CLEAR     76  68  76 S5        30.02R
SALINA         CLEAR     85  64  49 SE16      29.92R
TOPEKA BILLARD CLEAR     79  66  64 SE9       29.98R
TOPEKA FORBES  FAIR      78  67  68 SE8       29.99R
$$



USA.gov is the U.S. government's official web portal to all federal, state and local government web resources and services.